Location: Unspecified
(0.0000°N, 0.0000°E)
Time: 10:41:44
(UTC+00:00)

Transit 4B - Pass Details

Date: 19 August 2024
Orbit: 947 x 1097 km, 32.4° (Epoch: 07 September)

Event Time Altitude Azimuth Distance (km) Brightness Sun altitude
Rises 21:15:12 0° 295° (WNW) 3,626 12.2 -46.5°
Reaches altitude 10° 21:17:55 10° 290° (WNW) 2,669 11.3 -47.1°
Enters shadow 21:18:55 15° 287° (WNW) 2,325 10.9 -47.4°
